Погода в Тирисе-Усманове

Россия / Оренбургская область     53°43′22″N   53°20′17″E
темп.,
°C
ветер,
м/с
пор.,
м/с
влажн.,
%
обл.,
%
осадки,
мм/ч
давл.,
гПа
погр.,
м
12 мая, ср
ср1223:00+19вюв1150100 0.0 102611
02:00+17ююв1152100 0.0 102611
05:00+17вюв1153100 0.0 102711
08:00+18вюв115742 0.0 102736
11:00+22ююв344055 0.0 10281047
14:00+23ююв55335 0.0 10272110
17:00+24юв45285 0.0 10272117
20:00+20юв3545100 0.0 102796
13 мая, чт
чт1323:00+17юв224953 0.0 102816
02:00+15вюв225270 0.0 102717
05:00+14вюв335628 0.0 102729
08:00+17вюв38535 0.0 1028259
11:00+22юв673712 0.0 1027890
14:00+25ююв563110 0.0 10271631
17:00+25ююв563118 0.0 10261687
20:00+22ююв34474 0.0 102675
14 мая, пт
пт1423:00+18юв33491 0.0 102630
02:00+16юв35514 0.0 102674
05:00+15юв335355 0.0 102630
08:00+18юв2856100 0.0 1027243
11:00+23ю46405 0.0 1027581
14:00+26ю5532100 0.0 10261087
17:00+26ю4632100 0.0 10261538
20:00+23ю224555 0.0 102425
15 мая, сб
сб1523:00+19ю22506 0.0 102513
02:00+17ю22495 0.0 102412
05:00+16ююв225174 0.0 102413
08:00+19ю26505 0.0 1025159
11:00+25ююз46375 0.0 1024613
14:00+27ююз5628100 0.0 10241765
17:00+28ююз45265 0.0 10232024
20:00+25ю22405 0.0 102218
16 мая, вс
вс1623:00+21ююв22425 0.0 102212
02:00+19ююв22475 0.0 102212
05:00+18ююв11542 0.0 102211
08:00+21юв23515 0.0 1022101
11:00+27ю46370 0.0 1022740
14:00+29ююз56295 0.0 10213245
17:00+29ююз463259 0.0 10203419
20:00+25ююз334644 0.0 101957